Theta_e
352 350 349 346 346 345 347 347 349 349 351 352 354 353 349 349 350 352 352 348 346 344
353 353 352 350 349 348 347 349 350 350 349 352 353 353 352 349 348 350 352 351 346 347
356 355 352 351 349 348 349 349 349 352 350 351 351 352 352 350 349 350 350 350 349 349
357 356 354 353 351 348 348 349 349 349 351 350 350 351 350 349 350 349 347 347 347 346
357 357 356 355 353 351 349 353 350 351 351 351 350 350 350 349 349 346 346 349 348 346
354 355 355 355 354 353 349 350 352 352 349 348 348 350 350 350 349 347 349 349 347 346
353 355 355 355 354 353 353 350 352 351 349 348 349 350 350 349 348 350 350 349 349 349
354 355 355 354 354 354 352 353 352 351 349 349 349 351 350 349 348 349 349 350 351 350
356 355 355 354 355 353 353 352 352 351 350 350 351 345 344 349 349 350 349 347 347 350
354 354 356 356 354 353 352 352 351 351 351 350 351 341 340 344 350 349 348 346 348 348
339 342 341 344 349 349 352 352 351 351 351 350 351 340 336 339 346 349 348 349 349 348
337 332 332 333 335 336 339 343 347 349 351 351 350 335 333 334 338 345 348 349 350 351
342 336 331 329 328 330 333 334 336 336 336 346 351 335 330 331 344 344 345 348 351 340
341 341 332 326 323 323 328 330 332 332 335 338 348 350 328 325 344 344 344 345 346 348
Wind_Speed
8 7 6 7 5 5 5 7 9 8 6 7 7 6 6 4 4 5 4 5 3 2
11 10 9 7 7 6 7 6 8 11 9 7 7 7 7 5 5 5 5 5 5 3
12 10 9 9 8 9 8 9 7 8 10 10 8 7 7 6 6 6 5 4 6 5
12 12 10 9 9 11 9 8 10 8 10 10 8 7 7 7 6 7 7 6 5 5
12 12 11 11 8 10 10 7 9 7 10 11 11 9 9 9 8 7 7 7 6 6
14 13 13 13 12 9 9 8 7 7 9 11 10 9 8 10 9 7 7 7 7 7
15 15 15 13 13 11 11 10 8 9 9 9 8 9 8 10 9 8 8 8 7 7
13 14 13 14 11 13 11 11 10 8 8 9 10 9 10 11 11 10 8 7 7 7
5 7 12 13 12 13 12 12 11 10 9 9 10 14 16 11 8 10 10 10 7 7
4 6 8 8 10 11 12 10 13 13 11 11 12 14 16 18 11 10 10 9 8 7
7 6 10 7 7 6 8 11 11 13 13 12 11 15 16 16 13 11 12 12 11 10
4 4 5 3 4 1 4 3 4 7 11 13 14 15 16 12 8 13 13 12 11 11
4 5 7 6 6 3 3 4 2 12 16 22 16 15 17 15 10 9 7 7 10 16
5 6 7 7 3 2 3 5 7 5 11 17 17 16 19 20 14 11 8 8 8 8
Wind_Direction
174 190 185 190 175 186 180 185 197 207 196 188 186 185 181 190 197 212 223 238 244 286
181 183 192 187 189 190 199 197 190 196 199 198 195 188 182 194 208 204 215 230 243 232
185 184 184 188 201 203 201 210 195 192 191 195 198 194 180 191 207 203 213 206 213 225
192 193 190 194 197 199 203 204 215 195 190 195 193 191 192 197 203 212 210 228 192 201
195 193 195 205 200 194 200 204 204 191 195 192 190 190 198 203 212 214 217 217 205 223
198 193 198 202 206 193 202 199 196 184 186 188 191 189 192 196 204 217 211 208 209 222
196 194 198 200 197 196 195 199 189 187 185 187 184 191 192 196 204 214 214 213 209 209
203 196 196 201 192 196 188 193 189 181 187 192 194 200 201 203 205 207 214 218 214 210
224 211 198 197 195 195 195 196 185 191 191 194 207 204 202 198 198 202 206 218 219 223
301 254 207 198 190 190 198 198 203 204 199 203 209 208 204 208 214 212 211 207 214 222
3 355 359 325 250 234 195 202 207 209 211 213 216 203 211 212 216 216 216 207 203 208
310 312 300 291 307 231 16 5 319 271 219 216 224 209 208 201 210 221 215 206 202 205
282 249 246 233 246 238 202 189 79 291 302 266 226 211 207 200 214 214 204 198 199 203
288 256 239 230 206 201 227 166 210 209 253 289 267 220 208 197 211 212 206 210 215 217